Location: Unspecified
(48.2082°N, 0.0000°E)
Time: 03:38:30
(UTC+00:00)

Altair - Pass Details

Date: 26 June 2019
Orbit: 1501 x 1683 km, 47.2° (Epoch: 17 July)

Event Time Altitude Azimuth Distance (km) Brightness Sun altitude
Rises 20:52:38 0° 261° (W) 4,716 10.6 -6.7°
Reaches altitude 10° 20:55:38 10° 261° (W) 3,756 10.0 -7.1°
Maximum altitude 21:05:14 85° 174° (S) 1,621 7.6 -8.1°
Drops below altitude 10° 21:15:14 10° 88° (E) 3,900 9.3 -9.2°
Sets 21:18:25 0° 88° (E) 4,905 9.8 -9.5°
